Weather History for Whiting Fld NAS, FL

Change the Weather History Date:

Wednesday, June 19, 2013

  Actual Average Record
Temperature  
Mean Temperature 78 °F -  
Max Temperature 88 °F 85 °F 98 °F (1998)
Min Temperature 69 °F 69 °F 66 °F (2006)
Cooling Degree Days 12    
Growing Degree Days 28 (Base 50)    
Moisture  
Dew Point 70 °F    
Average Humidity 79    
Maximum Humidity 97    
Minimum Humidity 59    
Precipitation  
Precipitation 0.12 in - - ()
Sea Level Pressure  
Sea Level Pressure 29.97 in    
Wind  
Wind Speed 4 mph (NW)    
Max Wind Speed 9 mph    
Max Gust Speed -    
Visibility 9 miles    
Events Rain , Thunderstorm    
Averages and records for this station are not official NWS values.
T = Trace of Precipitation, MM = Missing Value Source: NWS Daily Summary

Daily Weather History Graph

Daily Weather History Graph

Search for Another Location

Airport:

Trip Planner

Search our weather history database for the weather conditions in past years. The results will help you decide how hot, cold, wet, or windy it might be!

Date:

Astronomy

Jun. 19, 2013 Rise Set
Actual Time 5:45 AM CDT 7:53 PM CDT
Civil Twilight 5:17 AM CDT 8:21 PM CDT
Nautical Twilight 4:43 AM CDT 8:55 PM CDT
Astronomical Twilight 4:07 AM CDT 9:31 PM CDT
Moon 3:56 PM CDT (6/19) 2:16 AM CDT (6/19)
Length of Visible Light 15h 03m
Length of Day
14h 08m
Waxing Gibbous, 80% of the Moon is Illuminated
Jun 19
Waxing Gibbous
Jun 23
Full
Jun 29
Last Quarter
Jul 8
New
Jul 15
First Quarter

Hourly Weather History & Observations

Time (CDT) Temp. Heat Index Dew Point Humidity Pressure Visibility Wind Dir Wind Speed Gust Speed Precip Events Conditions
12:56 AM 73.0 °F - 70.0 °F 90% 29.96 in 10.0 mi SW 5.8 mph - 0.03 in Rain Light Rain
1:56 AM 73.0 °F - 70.0 °F 90% 29.94 in 8.0 mi South 6.9 mph - 0.06 in Rain Light Rain
2:31 AM 73.4 °F - 71.6 °F 94% 29.97 in 10.0 mi SSW 4.6 mph - 0.00 in   Scattered Clouds
2:56 AM 72.0 °F - 71.1 °F 97% 29.90 in 9.0 mi Calm Calm - 0.00 in   Clear
3:56 AM 71.1 °F - 70.0 °F 96% 29.90 in 6.0 mi Calm Calm - N/A   Clear
4:36 AM 69.8 °F - 68.0 °F 94% 29.95 in 1.8 mi Calm Calm - N/A   Clear
4:56 AM 70.0 °F - 68.0 °F 93% 29.91 in 3.0 mi Calm Calm - N/A   Clear
5:56 AM 71.1 °F - 66.9 °F 87% 29.94 in 9.0 mi NW 3.5 mph - N/A   Mostly Cloudy
6:56 AM 73.0 °F - 69.1 °F 87% 29.95 in 8.0 mi Calm Calm - N/A   Scattered Clouds
7:56 AM 77.0 °F - 70.0 °F 79% 29.96 in 10.0 mi NNW 3.5 mph - N/A   Scattered Clouds
8:56 AM 79.0 °F - 71.1 °F 77% 29.99 in 10.0 mi NNW 4.6 mph - N/A   Scattered Clouds
9:56 AM 82.0 °F 85.9 °F 70.0 °F 67% 29.98 in 10.0 mi Calm Calm - N/A   Scattered Clouds
10:56 AM 84.0 °F 89.0 °F 71.1 °F 65% 29.98 in 10.0 mi NW 6.9 mph - N/A   Mostly Cloudy
11:21 AM 84.2 °F 89.6 °F 71.6 °F 66% 30.02 in 10.0 mi NNW 6.9 mph - N/A Thunderstorm Thunderstorm
11:43 AM 80.6 °F 84.6 °F 71.6 °F 74% 30.03 in 10.0 mi NW 9.2 mph - 0.00 in Rain , Thunderstorm Light Thunderstorms and Rain
11:56 AM 77.0 °F - 72.0 °F 84% 29.99 in 4.0 mi West 5.8 mph - 0.02 in Rain , Thunderstorm Thunderstorms and Rain
12:19 PM 75.2 °F - 71.6 °F 89% 30.03 in 10.0 mi SSW 4.6 mph - 0.01 in Thunderstorm Thunderstorm
12:56 PM 80.1 °F 84.5 °F 73.9 °F 81% 29.99 in 10.0 mi Calm Calm - 0.01 in   Mostly Cloudy
1:56 PM 84.0 °F 89.6 °F 72.0 °F 67% 29.97 in 10.0 mi NNW 4.6 mph - N/A   Mostly Cloudy
2:56 PM 86.0 °F 90.7 °F 70.0 °F 59% 29.96 in 10.0 mi North 5.8 mph - N/A   Mostly Cloudy
3:56 PM 86.0 °F 91.5 °F 71.1 °F 61% 29.94 in 10.0 mi NW 3.5 mph - N/A   Mostly Cloudy
4:56 PM 86.0 °F 91.5 °F 71.1 °F 61% 29.93 in 10.0 mi North 4.6 mph - N/A   Mostly Cloudy
5:56 PM 84.0 °F 88.4 °F 70.0 °F 63% 29.94 in 10.0 mi NNW 3.5 mph - N/A   Mostly Cloudy
6:56 PM 82.0 °F 85.9 °F 70.0 °F 67% 29.95 in 10.0 mi Calm Calm - N/A   Mostly Cloudy
7:56 PM 80.1 °F 83.2 °F 70.0 °F 71% 29.96 in 10.0 mi Calm Calm - N/A   Mostly Cloudy
8:56 PM 77.0 °F - 70.0 °F 79% 29.97 in 10.0 mi Calm Calm - N/A   Scattered Clouds
9:56 PM 75.9 °F - 71.1 °F 85% 29.99 in 10.0 mi NE 3.5 mph - N/A   Scattered Clouds
10:56 PM 73.9 °F - 70.0 °F 87% 30.00 in 10.0 mi Calm Calm - N/A   Scattered Clouds
11:56 PM 73.9 °F - 70.0 °F 87% 30.00 in 10.0 mi Calm Calm - N/A   Clear